Flag for U.S.A. Weather past 2 weeks in Huntington Beach, California, U.S.A.

Now
76 °F

Broken clouds.


Feels Like: 78 °F
Forecast: 67 / 75 °F
Wind: 8 mph from Southwest

Location: John Wayne Airport-Orange County Airport

Current Time: Jul 1, 2015 at 5:12:06 PM

Latest Report: Jul 1, 2015 at 4:53 PM


Visibility: 10 mi

Pressure: 29.88 "Hg

Humidity: 62%

Dew point: 62 °F

Location of Huntington BeachLocation

Historic Weather in Huntington Beach — Graph

°F

Huntington Beach temperature yesterday

Maximum temperature yesterday: 86 °F (at 7:53 PM)
Minimum temperature yesterday: 65 °F (at 6:53 AM)
Average temperature yesterday: 73 °F

Past Weeks' High & Low Weather Summary

 TemperatureHumidityPressure
High86 °F (Jun 30, 7:53 PM)97% (Jun 19, 2:53 AM)30.02 "Hg (Jun 19, 2:53 AM)
Low61 °F (Jun 19, 1:53 AM)36% (Jun 30, 7:53 PM)29.78 "Hg (Jun 30, 7:53 PM)
Average70 °F74%29.90 "Hg
* Reported Jun 16 3:53 PM — Jul 1 3:53 PM, Huntington Beach, Weather by CustomWeather, © 2015

Note: Actual official high and low records may vary slightly from our data, if they occured in-between our weather recording intervals... More about our weather records

Advertising

Huntington Beach weather history for previous 24 hours

 ConditionsComfort  
Time TempWeatherWind HumidityBarometerVisibility
3:53 PM
Wed, Jul 1
77 °FPartly sunny.10 mph62%29.88 "Hg10 mi
2:53 PM77 °FPartly sunny.7 mph64%29.89 "Hg9 mi
1:53 PM75 °FPartly sunny.10 mph69%29.90 "Hg10 mi
12:53 PM75 °FPartly sunny.9 mph69%29.89 "Hg9 mi
11:53 AM81 °FMostly cloudy.6 mph58%29.90 "Hg10 mi
10:53 AM78 °FPartly sunny.3 mph64%29.91 "Hg10 mi
9:53 AM75 °FCloudy.7 mph74%29.91 "Hg10 mi
8:53 AM74 °FPartly sunny.7 mph76%29.92 "Hg9 mi
7:53 AM73 °FMostly cloudy.No wind76%29.91 "Hg9 mi
6:53 AM71 °FMostly cloudy.No wind81%29.88 "Hg10 mi
5:53 AM71 °FClear.No wind76%29.89 "Hg10 mi
4:53 AM69 °FClear.No wind84%29.88 "Hg10 mi
3:53 AM70 °FClear.No wind79%29.88 "Hg10 mi
2:53 AM70 °FClear.6 mph79%29.88 "Hg10 mi
1:53 AM72 °FClear.No wind71%29.85 "Hg10 mi
12:53 AM71 °FClear.No wind73%29.84 "Hg10 mi
11:53 PM
Tue, Jun 30
70 °FClear.3 mph76%29.84 "Hg10 mi
10:53 PM72 °FClear.3 mph68%29.85 "Hg10 mi
8:53 PM75 °FScattered clouds.8 mph66%29.81 "Hg10 mi
7:53 PM86 °FPartly sunny.No wind36%29.78 "Hg10 mi
6:53 PM85 °FPartly sunny.5 mph40%29.79 "Hg10 mi
5:53 PM80 °FPartly sunny.7 mph56%29.83 "Hg10 mi
Weather by CustomWeather, © 2015

See weather overviewHow to use our weather pages